Location: Baia Mare
(47.6567°N, 23.5850°E)
Time: 14:03:57
(UTC+03:00)

ISS - Pass Details

Date: 14 July 2019
Orbit: 409 x 418 km, 51.6° (Epoch: 21 July)

Event Time Altitude Azimuth Distance (km) Brightness Sun altitude
Exits shadow 02:36:07 11° 281° (W) 1,445 -1.1 -19.1°
Maximum altitude 02:39:11 42° 353° (N) 604 -2.5 -18.9°
Drops below altitude 10° 02:42:22 10° 66° (ENE) 1,480 -0.4 -18.8°
Sets 02:44:32 0° 74° (ENE) 2,341 0.5 -18.7°
